Location: Ferintosh
(52.7647°N, 112.9692°W)
Time: 13:45:34
(UTC+00:00)

Transit 2A Rocket - Pass Details

Date: 22 May 2024
Orbit: 583 x 910 km, 66.7° (Epoch: 14 June)

Event Time Altitude Azimuth Distance (km) Brightness Sun altitude
Rises 17:00:22 0° 312° (NW) 3,289 7.9 47.0°
Reaches altitude 10° 17:03:09 10° 326° (NW) 2,414 7.3 47.4°
Maximum altitude 17:07:44 25° 21° (NNE) 1,666 6.9 48.0°
Drops below altitude 10° 17:12:33 10° 75° (ENE) 2,552 8.2 48.5°
Sets 17:15:36 0° 89° (E) 3,518 8.9 48.9°
